"Pseudo-MPEC" for P115OfN

Created 2020 Sep 22 17:07:16 UT using Find_Orb

Click here for an explanation of pseudo-MPECs

 
 Astrometry: 
     P115OfN  C2020 09 13KqsQ[e^ptjJf`rIEn%v*rR'D?-N#kSAstrometryte+/PeG98%%xF51
     P115OfN  C2020 09 13w(wEredacted;.MOZS[bR!o$a4Ssb0click801Q6VThereg8Q2F$F51
     P115OfN  C2020 09 13;[1vCcQlD0-XcgQ%xi5/tkyPEfforBPRexplanationiTm$@i!)uF51

Station data:
(F51) Pan-STARRS 1, Haleakala  (N20.707235 W156.255910)  US/Hawaii.
   Observers N. Primak, A. Schultz, S. Watters, J. Thiel, T. Goggia. Measurer
   PS1 Science Consortium. 1.8-m Ritchey-Chrétien + CCD.

Orbital elements:  P115OfN
   Perihelion 2020 Dec 28.315960 +/- 93.3 TT =  7:34:58 (JD 2459211.815960)
Epoch 2020 Sep 13.0 TT = JDT 2459105.5   Earth MOID: 0.0009   AutoNEOCP
M 256.35147288 +/- 80               (J2000 ecliptic)
n   0.97491032 +/- 0.483            Peri.  289.00832 +/- 90
a   1.00730178 +/- 0.333            Node   169.83543 +/- 25
e   0.0421439 +/- 0.257             Incl.    1.27605 +/- 29
P   1.01/369.26d           H 31.1   G  0.15   U 12.3  SR
q 0.96485010 +/- 0.386    Q 1.04975345 +/- 19
From 3 observations 2020 Sept. 13 (51.9 min); mean residual 0".03
Residuals in arcseconds: 
200913 F51  .01-  .02+    200913 F51  .03+  .05-    200913 F51  .02-  .03+    

Ephemerides (geocentric):
Date (UTC) HH   RA              Dec         delta   r     elong  mag " sig PA
---- -- -- --  -------------   -----------  ------ ------ -----  --- ---- ---
2020 09 22 17  00 42 17.210   -22 49 17.45  .00916 1.0119 155.0 22.0  54d 171
2020 09 22 18  00 42 26.413   -22 57 32.12  .00915 1.0118 154.8 22.0  54d 171
2020 09 22 19  00 42 35.661   -23 05 47.99  .00913 1.0118 154.7 22.0  54d 171
2020 09 22 20  00 42 44.954   -23 14 05.05  .00912 1.0118 154.5 22.0  55d 171
2020 09 22 21  00 42 54.292   -23 22 23.32  .00911 1.0117 154.4 22.0  55d 171
2020 09 22 22  00 43 03.676   -23 30 42.78  .00910 1.0117 154.3 22.0  55d 171
2020 09 22 23  00 43 13.106   -23 39 03.43  .00908 1.0117 154.1 22.0  55d 171
2020 09 23 00  00 43 22.583   -23 47 25.28  .00907 1.0116 154.0 22.0  55d 171
2020 09 23 01  00 43 32.106   -23 55 48.33  .00906 1.0116 153.8 22.0  55d 171
2020 09 23 02  00 43 41.676   -24 04 12.57  .00905 1.0116 153.7 22.0  55d 171
2020 09 23 03  00 43 51.294   -24 12 38.00  .00903 1.0115 153.6 22.0  55d 171
2020 09 23 04  00 44 00.960   -24 21 04.62  .00902 1.0115 153.4 22.1  55d 171
2020 09 23 05  00 44 10.675   -24 29 32.43  .00901 1.0115 153.3 22.1  56d 171
2020 09 23 06  00 44 20.438   -24 38 01.44  .00900 1.0114 153.1 22.1  56d 171
2020 09 23 07  00 44 30.250   -24 46 31.63  .00898 1.0114 153.0 22.1  56d 171
2020 09 23 08  00 44 40.111   -24 55 03.00  .00897 1.0114 152.8 22.1  56d 171
2020 09 23 09  00 44 50.023   -25 03 35.57  .00896 1.0113 152.7 22.1  57d 171
2020 09 23 10  00 44 59.984   -25 12 09.31  .00895 1.0113 152.5 22.1  57d 171
2020 09 23 11  00 45 09.997   -25 20 44.24  .00894 1.0113 152.4 22.1  57d 171
2020 09 23 12  00 45 20.060   -25 29 20.35  .00892 1.0112 152.2 22.1  57d 171
2020 09 23 13  00 45 30.176   -25 37 57.65  .00891 1.0112 152.1 22.1  57d 171
2020 09 23 14  00 45 40.343   -25 46 36.12  .00890 1.0112 151.9 22.1  57d 171
2020 09 23 15  00 45 50.562   -25 55 15.77  .00889 1.0111 151.8 22.1  57d 171
2020 09 23 16  00 46 00.834   -26 03 56.59  .00888 1.0111 151.6 22.1  57d 171
2020 09 23 17  00 46 11.160   -26 12 38.59  .00887 1.0111 151.5 22.1  57d 171
2020 09 23 18  00 46 21.539   -26 21 21.76  .00885 1.0110 151.3 22.1  57d 171
2020 09 23 19  00 46 31.972   -26 30 06.11  .00884 1.0110 151.2 22.1  57d 171
2020 09 23 20  00 46 42.460   -26 38 51.62  .00883 1.0110 151.0 22.1  58d 171
2020 09 23 21  00 46 53.003   -26 47 38.30  .00882 1.0109 150.9 22.1  58d 171
2020 09 23 22  00 47 03.601   -26 56 26.14  .00881 1.0109 150.7 22.1  58d 171
2020 09 23 23  00 47 14.255   -27 05 15.15  .00880 1.0109 150.6 22.1  58d 171
2020 09 24 00  00 47 24.966   -27 14 05.32  .00879 1.0108 150.4 22.1  58d 171
2020 09 24 01  00 47 35.733   -27 22 56.65  .00877 1.0108 150.3 22.1  58d 171
2020 09 24 02  00 47 46.558   -27 31 49.14  .00876 1.0108 150.1 22.1  58d 171
2020 09 24 03  00 47 57.440   -27 40 42.79  .00875 1.0107 150.0 22.1  58d 171
2020 09 24 04  00 48 08.381   -27 49 37.58  .00874 1.0107 149.8 22.1  58d 171
2020 09 24 05  00 48 19.380   -27 58 33.53  .00873 1.0107 149.7 22.1  58d 171
2020 09 24 06  00 48 30.439   -28 07 30.63  .00872 1.0106 149.5 22.1  58d 171
2020 09 24 07  00 48 41.557   -28 16 28.88  .00871 1.0106 149.3 22.1  58d 171
2020 09 24 08  00 48 52.736   -28 25 28.27  .00870 1.0106 149.2 22.1  58d 171
2020 09 24 09  00 49 03.975   -28 34 28.80  .00869 1.0105 149.0 22.1  58d 171
2020 09 24 10  00 49 15.276   -28 43 30.47  .00868 1.0105 148.9 22.1  58d 171
2020 09 24 11  00 49 26.638   -28 52 33.28  .00866 1.0105 148.7 22.1  58d 171
2020 09 24 12  00 49 38.063   -29 01 37.22  .00865 1.0104 148.5 22.1  58d 171
2020 09 24 13  00 49 49.551   -29 10 42.30  .00864 1.0104 148.4 22.1  58d 171
2020 09 24 14  00 50 01.102   -29 19 48.50  .00863 1.0104 148.2 22.1  58d 171
2020 09 24 15  00 50 12.716   -29 28 55.83  .00862 1.0103 148.1 22.1  58d 171
2020 09 24 16  00 50 24.395   -29 38 04.28  .00861 1.0103 147.9 22.1  58d 171